Home   Weather   Dickinson   Past weeks

Flag for USA Past Weather in Dickinson, North Dakota, USA — Yesterday and Last 2 Weeks

Now
26 °F

Sunny.


Feels Like: 16 °F
Forecast: 20 / 31 °F
Wind: 12 mph from Northwest

Location: Dickinson Municipal Airport

Current Time: Jan 20, 2017 at 11:18:25 am

Latest Report: Jan 20, 2017 at 9:56 am


Visibility: 10 mi

Pressure: 29.43 "Hg (26.81 "Hg at 735m altitude)

Humidity: 88%

Dew Point: 23 °F

Location of DickinsonLocation

Past Weather in Dickinson — Graph

°F

Dickinson Temperature Yesterday

Maximum temperature yesterday: 34 °F (at 12:56 pm)
Minimum temperature yesterday: 18 °F (at 8:56 pm)
Average temperature yesterday: 25 °F

High & Low Weather Summary for the Past Weeks

 TemperatureHumidityPressure
High40 °F (Jan 18, 4:56 pm)100% (Jan 7, 9:56 am)30.74 "Hg (Jan 7, 9:56 am)
Low-20 °F (Jan 7, 6:05 am)48% (Jan 15, 6:56 pm)29.43 "Hg (Jan 20, 9:56 am)
Average7 °F74%30.05 "Hg
* Reported Jan 5 9:56 am — Jan 20 9:56 am, Dickinson, Weather by CustomWeather, © 2017

Note: Actual official high and low records may vary slightly from our data, if they occured in-between our weather recording intervals... More about our weather records

Advertising

Dickinson Weather History for the Previous 24 Hours

Scroll right to see more
 ConditionsComfort  
Time TempWeatherWind HumidityBarometerVisibility
9:56 am
Fri, Jan 20
26 °FSunny.12 mph88%29.43 "Hg10 mi
8:56 am25 °FSunny.12 mph88%29.44 "Hg10 mi
7:56 am24 °FSunny.10 mph84%29.44 "Hg10 mi
6:56 am21 °FSunny.9 mph88%29.45 "Hg10 mi
5:56 am21 °FClear.7 mph88%29.44 "Hg10 mi
4:56 am20 °FClear.9 mph89%29.44 "Hg10 mi
3:56 am19 °FClear.6 mph88%29.45 "Hg10 mi
2:56 am19 °FClear.7 mph88%29.45 "Hg10 mi
1:56 am19 °FClear.12 mph85%29.46 "Hg10 mi
12:56 am19 °FClear.12 mph81%29.44 "Hg10 mi
11:56 pm
Thu, Jan 19
18 °FClear.9 mph84%29.47 "Hg10 mi
10:56 pm20 °FClear.10 mph85%29.48 "Hg10 mi
9:56 pm19 °FClear.7 mph88%29.48 "Hg10 mi
8:56 pm18 °FClear.7 mph88%29.51 "Hg10 mi
7:56 pm21 °FClear.No wind81%29.51 "Hg10 mi
6:56 pm22 °FClear.9 mph82%29.52 "Hg10 mi
5:56 pm26 °FClear.6 mph77%29.52 "Hg10 mi
4:56 pm28 °FClear.7 mph78%29.49 "Hg10 mi
3:56 pm31 °FClear.7 mph76%29.48 "Hg10 mi
2:56 pm33 °FSunny.14 mph72%29.48 "Hg10 mi
1:56 pm34 °FSunny.12 mph70%29.47 "Hg10 mi
12:56 pm34 °FSunny.5 mph67%29.48 "Hg10 mi
11:56 am32 °FSunny.6 mph75%29.50 "Hg10 mi
Weather by CustomWeather, © 2017

See weather overviewHow to use our weather pages